This is the latest recevied weather packets stored in our database for station/object KC9DRE. If no packets are shown the sender has not sent any weather packets the latest 10 day(s).
| Time | Temp. | Humidity | Pressure | Rain* | Wind** | Luminosity | Snow |
|---|---|---|---|---|---|---|---|
| 1787922488 | 22.22° C | 92% | 1019.8 hPa | 0 mm | - | 392 W/m² | - |
| 1787922187 | 21.67° C | 94% | 1019.9 hPa | 0 mm | - | 277 W/m² | - |
| 1787921884 | 21.11° C | 97% | 1019.7 hPa | 0 mm | - | 217 W/m² | - |
| 1787921579 | 20.56° C | 98% | 1019.8 hPa | 0 mm | - | 186 W/m² | - |
| 1787921273 | 20.56° C | 99% | 1019.9 hPa | 0 mm | - | 160 W/m² | - |
| 1787920969 | 20° C | 99% | 1019.9 hPa | 0 mm | - | 147 W/m² | - |
| 1787920669 | 19.44° C | 99% | 1019.8 hPa | 0 mm | - | 126 W/m² | - |
| 1787920368 | 18.89° C | 99% | 1019.7 hPa | 0 mm | - | 114 W/m² | - |
| 1787920066 | 18.33° C | 99% | 1020 hPa | 0 mm | - | 104 W/m² | - |
| 1787919761 | 17.78° C | 99% | 1019.8 hPa | 0 mm | - | 96 W/m² | - |
| 1787919460 | 17.78° C | 99% | 1020.1 hPa | 0 mm | - | 90 W/m² | - |
| 1787919156 | 17.22° C | 99% | 1019.8 hPa | 0 mm | - | 80 W/m² | - |
| 1787918856 | 16.67° C | 99% | 1019.8 hPa | 0 mm | - | 69 W/m² | - |
| 1787918551 | 15.56° C | 99% | 1019.7 hPa | 0 mm | - | 60 W/m² | - |
| 1787918249 | 15.56° C | 99% | 1019.7 hPa | 0 mm | - | 45 W/m² | - |
| 1787917944 | 15.56° C | 99% | 1019.5 hPa | 0 mm | - | 40 W/m² | - |
| 1787917639 | 15.56° C | 99% | 1019.6 hPa | 0 mm | - | 34 W/m² | - |
| 1787917336 | 15° C | 99% | 1019.5 hPa | 0 mm | - | 29 W/m² | - |
| 1787917035 | 15° C | 99% | 1019.3 hPa | 0 mm | - | 23 W/m² | - |
| 1787916730 | 15° C | 99% | 1019.3 hPa | 0 mm | - | 18 W/m² | - |
| 1787916425 | 15° C | 99% | 1019.3 hPa | 0 mm | - | 13 W/m² | - |
| 1787916121 | 15° C | 99% | 1019.1 hPa | 0 mm | - | 10 W/m² | - |
| 1787915815 | 15° C | 99% | 1019.3 hPa | 0 mm | - | 7 W/m² | - |
| 1787915515 | 15° C | 99% | 1019.1 hPa | 0 mm | - | 4 W/m² | - |
| 1787915210 | 15° C | 99% | 1019.2 hPa | 0 mm | - | 2 W/m² | - |
* Rain latest hour (hover to see other rain measurements)
** Current wind speed in m/s (hover to see current wind gust speed)